Hutchinson, KS

3:15 PM CST on December 11, 2017 (GMT -0600)
Hutchinson Municipal

Weather History for KHUT - March, 2014

Change the Weather History Date:

Wednesday, March 19, 2014

  Actual Average Record
Temperature  
Mean Temperature 42 °F -  
Max Temperature 59 °F 55 °F 91 °F (2017)
Min Temperature 28 °F 31 °F 23 °F (2016)
Degree Days  
Heating Degree Days 22    
Moisture  
Dew Point 25 °F    
Average Humidity 54    
Maximum Humidity 85    
Minimum Humidity 24    
Precipitation  
Precipitation 0.00 in - - ()
Sea Level Pressure  
Sea Level Pressure 30.10 in    
Wind  
Wind Speed 15 mph (NNW)    
Max Wind Speed 22 mph    
Max Gust Speed 38 mph    
Visibility 10 miles    
Events      
Averages and records for this station are not official NWS values.
T = Trace of Precipitation, MM = Missing Value Source: NWS Daily Summary

Daily Weather History Graph

Daily Weather History Graph

Search for Another Location

Airport or City:

Trip Planner

Search our weather history database for the weather conditions in past years. The results will help you decide how hot, cold, wet, or windy it might be!

Date:

Astronomy

Mar. 19, 2014 Rise Set
Actual Time 7:36 AM CDT 7:42 PM CDT
Civil Twilight 7:10 AM CDT 8:08 PM CDT
Nautical Twilight 6:39 AM CDT 8:39 PM CDT
Astronomical Twilight 6:08 AM CDT 9:10 PM CDT
Moon 10:58 PM CDT (3/19) 9:06 AM CDT (3/19)
Length of Visible Light 12h 58m
Length of Day
12h 06m
Waning Gibbous, 91% of the Moon is Illuminated
Mar 19
Waning Gibbous
Mar 23
Last Quarter
Mar 30
New
Apr 7
First Quarter
Apr 15
Full

Hourly Weather History & Observations

Time (CDT) Temp. Windchill Dew Point Humidity Pressure Visibility Wind Dir Wind Speed Gust Speed Precip Events Conditions
12:52 AM 37.0 °F 26.2 °F 28.0 °F 70% 29.91 in 10.0 mi NNW 21.9 mph 29.9 mph N/A   Overcast
1:52 AM 37.0 °F 26.2 °F 28.0 °F 70% 29.94 in 10.0 mi North 21.9 mph 38.0 mph N/A   Overcast
2:52 AM 37.9 °F 28.2 °F 28.9 °F 70% 29.96 in 10.0 mi North 18.4 mph 25.3 mph N/A   Overcast
3:52 AM 37.9 °F 27.3 °F 28.0 °F 68% 29.99 in 10.0 mi NNW 21.9 mph 35.7 mph N/A   Overcast
4:52 AM 37.0 °F 28.5 °F 27.0 °F 67% 30.01 in 10.0 mi North 13.8 mph 23.0 mph N/A   Overcast
5:21 AM 35.1 °F 24.5 °F 26.1 °F 70% 30.04 in 10.0 mi North 18.4 mph 25.3 mph N/A   Scattered Clouds
5:52 AM 34.0 °F 25.0 °F 26.1 °F 73% 30.06 in 10.0 mi North 12.7 mph 23.0 mph N/A   Clear
6:52 AM 30.9 °F 25.2 °F 25.0 °F 79% 30.10 in 10.0 mi NNW 5.8 mph - N/A   Clear
7:52 AM 28.0 °F 19.3 °F 24.1 °F 85% 30.13 in 10.0 mi NW 9.2 mph - N/A   Clear
8:52 AM 32.0 °F 23.0 °F 27.0 °F 82% 30.15 in 9.0 mi NW 11.5 mph - N/A   Clear
9:52 AM 39.9 °F 31.8 °F 28.0 °F 63% 30.19 in 9.0 mi NNW 15.0 mph - N/A   Clear
10:52 AM 44.1 °F 37.7 °F 27.0 °F 51% 30.21 in 10.0 mi North 12.7 mph - N/A   Clear
11:52 AM 48.9 °F - 25.0 °F 39% 30.21 in 10.0 mi North 16.1 mph - N/A   Clear
12:52 PM 52.0 °F - 25.0 °F 35% 30.19 in 10.0 mi NNW 15.0 mph 21.9 mph N/A   Clear
1:52 PM 54.0 °F - 24.1 °F 31% 30.17 in 10.0 mi NW 13.8 mph 23.0 mph N/A   Clear
2:52 PM 55.0 °F - 25.0 °F 31% 30.15 in 10.0 mi WNW 10.4 mph 19.6 mph N/A   Clear
3:52 PM 57.0 °F - 26.1 °F 30% 30.12 in 10.0 mi West 13.8 mph 21.9 mph N/A   Clear
4:52 PM 57.9 °F - 24.1 °F 27% 30.11 in 10.0 mi West 11.5 mph - N/A   Clear
5:52 PM 57.9 °F - 21.0 °F 24% 30.10 in 10.0 mi WNW 8.1 mph - N/A   Clear
6:52 PM 57.0 °F - 21.0 °F 25% 30.11 in 10.0 mi WNW 11.5 mph - N/A   Clear
7:52 PM 50.0 °F - 21.0 °F 32% 30.13 in 10.0 mi West 4.6 mph - N/A   Clear
8:52 PM 39.9 °F 37.8 °F 21.9 °F 49% 30.14 in 10.0 mi SE 3.5 mph - N/A   Clear
9:52 PM 36.0 °F 33.3 °F 21.9 °F 57% 30.13 in 10.0 mi ESE 3.5 mph - N/A   Clear
10:52 PM 34.0 °F - 23.0 °F 64% 30.13 in 10.0 mi Calm Calm - N/A   Clear
11:52 PM 37.9 °F 32.7 °F 23.0 °F 55% 30.12 in 10.0 mi South 6.9 mph - N/A   Clear